Tracking 29059 objects as of 19-Jun-2024
HD Live streaming from Space Station
objects crossing your sky now

OBJECT T

Track OBJECT T now!
10-day predictions


NORAD ID: 56863
Int'l Code: 2023-081T
Perigee: 445.4 km
Apogee: 457.8 km
Inclination: 97.4 °
Period: 93.5 minutes
Semi major axis: 6822 km
RCS: Unknown
Launch date: June 7, 2023
Source: (TBD)
Launch site: Jiuquan Satellite Launch Center, China (JSC)
Your satellite tracking list
Your tracking list is empty




NASA's NSSDC Master Catalog

Two Line Element Set (TLE):
1 56863U 23081T   24170.90705278  .00041444  00000-0  10162-2 0  9993
2 56863  97.3784 248.1689 0009100  32.9755 327.2058 15.40563674 57715
Source of the keplerian elements: AFSPC